timestamp,surface_pressure_avg,surface_temp_avg,battery_voltage,lat,long
2021-09-30 00:09:01+00:00,253.0214,14.69,12.65,47.84626,-54.09684
2021-09-30 00:19:01+00:00,254.6564,14.7,12.65,47.84626,-54.09684
2021-09-30 00:29:01+00:00,251.5697,14.7,12.65,47.84626,-54.09684
2021-09-30 00:39:01+00:00,250.0998,14.7,12.65,47.84626,-54.09684
2021-09-30 00:49:01+00:00,251.2881,14.7,12.65,47.84626,-54.09684
2021-09-30 00:59:01+00:00,251.2531,14.7,12.65,47.84626,-54.09684
2021-09-30 01:09:01+00:00,248.3748,14.7,12.65,47.84626,-54.09684
2021-09-30 01:19:01+00:00,250.7814,14.7,12.65,47.84626,-54.09684
2021-09-30 01:29:01+00:00,252.6631,14.7,12.65,47.84626,-54.09684
2021-09-30 01:39:01+00:00,250.5381,14.7,12.65,47.84626,-54.09684
2021-09-30 01:49:01+00:00,247.6548,14.7,12.65,47.84626,-54.09684
2021-09-30 01:59:01+00:00,252.9147,14.7,12.65,47.84626,-54.09684
2021-09-30 02:09:01+00:00,254.2248,14.7,12.65,47.84626,-54.09684
2021-09-30 02:19:00+00:00,250.0115,14.7,12.65,47.84626,-54.09684
2021-09-30 02:29:00+00:00,250.8281,14.68,12.65,47.84626,-54.09684
2021-09-30 02:39:00+00:00,257.4647,14.6,12.65,47.84626,-54.09684
2021-09-30 02:49:00+00:00,259.4381,14.6,12.65,47.84626,-54.09684
2021-09-30 02:59:00+00:00,260.1964,14.6,12.65,47.84626,-54.09684
2021-09-30 03:09:00+00:00,268.5247,14.6,12.65,47.84626,-54.09684
2021-09-30 03:19:00+00:00,275.0581,14.6,12.65,47.84626,-54.09684
2021-09-30 03:29:00+00:00,276.4147,14.6,12.65,47.84626,-54.09684
2021-09-30 03:39:00+00:00,278.9814,14.6,12.65,47.84626,-54.09684
2021-09-30 03:49:00+00:00,286.688,14.6,12.65,47.84626,-54.09684
2021-09-30 03:59:00+00:00,291.4114,14.6,12.65,47.84626,-54.09684
2021-09-30 04:09:00+00:00,290.6747,14.6,12.65,47.84626,-54.09684
2021-09-30 04:19:00+00:00,290.2114,14.6,12.65,47.84626,-54.09684
2021-09-30 04:29:00+00:00,291.9964,14.6,12.65,47.84626,-54.09684
2021-09-30 04:39:00+00:00,297.3097,14.6,12.65,47.84626,-54.09684
2021-09-30 04:49:00+00:00,299.0714,14.6,12.65,47.84626,-54.09684
2021-09-30 04:59:00+00:00,302.8763,14.6,12.65,47.84626,-54.09684
2021-09-30 05:09:00+00:00,303.2813,14.65,12.65,47.84626,-54.09684
2021-09-30 05:19:01+00:00,305.5114,14.6,12.57,47.84626,-54.09684
2021-09-30 05:29:01+00:00,309.4346,14.6,12.57,47.84626,-54.09684
2021-09-30 05:39:01+00:00,307.8997,14.65,12.57,47.84626,-54.09684
2021-09-30 05:49:01+00:00,304.1631,14.65,12.57,47.84626,-54.09684
2021-09-30 05:59:01+00:00,303.9063,14.66,12.57,47.84626,-54.09684
2021-09-30 06:09:01+00:00,307.5364,14.67,12.57,47.84626,-54.09684
2021-09-30 06:19:01+00:00,305.2914,14.66,12.57,47.84626,-54.09684
2021-09-30 06:29:01+00:00,300.543,14.61,12.57,47.84626,-54.09684
2021-09-30 06:39:01+00:00,302.3997,14.6,12.57,47.84626,-54.09684
2021-09-30 06:49:01+00:00,303.9979,14.6,12.57,47.84626,-54.09684
2021-09-30 06:59:01+00:00,301.443,14.65,12.57,47.84626,-54.09684
2021-09-30 07:09:01+00:00,296.5347,14.68,12.57,47.84626,-54.09684
2021-09-30 07:19:00+00:00,296.0297,14.7,12.57,47.84626,-54.09684
2021-09-30 07:29:00+00:00,294.2681,14.7,12.57,47.84626,-54.09684
2021-09-30 07:39:00+00:00,287.3447,14.7,12.57,47.84626,-54.09684
2021-09-30 07:49:00+00:00,280.4447,14.7,12.57,47.84626,-54.09684
2021-09-30 07:59:00+00:00,278.3514,14.6,12.57,47.84626,-54.09684
2021-09-30 08:09:00+00:00,278.703,14.6,12.57,47.84626,-54.09684
2021-09-30 08:19:01+00:00,273.4464,14.6,12.57,47.84626,-54.09684
2021-09-30 08:29:01+00:00,267.5981,14.6,12.57,47.84626,-54.09684
2021-09-30 08:39:01+00:00,265.128,14.58,12.57,47.84626,-54.09684
2021-09-30 08:49:01+00:00,265.5598,14.59,12.57,47.84626,-54.09684
2021-09-30 08:59:01+00:00,260.0081,14.6,12.57,47.84626,-54.09684
2021-09-30 09:09:01+00:00,258.3897,14.6,12.57,47.84626,-54.09684
2021-09-30 09:19:01+00:00,253.8163,14.6,12.57,47.84626,-54.09684
2021-09-30 09:29:01+00:00,249.5081,14.6,12.57,47.84626,-54.09684
2021-09-30 09:39:01+00:00,246.0897,14.6,12.57,47.84626,-54.09684
2021-09-30 09:49:01+00:00,246.8298,14.6,12.57,47.84626,-54.09684
2021-09-30 09:59:01+00:00,245.5364,14.6,12.57,47.84626,-54.09684
2021-09-30 10:09:01+00:00,242.8097,14.59,12.57,47.84626,-54.09684
2021-09-30 10:19:01+00:00,243.3347,14.58,12.57,47.84626,-54.09684
2021-09-30 10:29:01+00:00,242.1848,14.59,12.57,47.84626,-54.09684
2021-09-30 10:39:01+00:00,240.3764,14.6,12.57,47.84626,-54.09684
2021-09-30 10:49:01+00:00,235.3581,14.57,12.57,47.84626,-54.09684
2021-09-30 10:59:01+00:00,235.4781,14.6,12.57,47.84626,-54.09684
2021-09-30 11:09:01+00:00,240.0464,14.6,12.57,47.84626,-54.09684
2021-09-30 11:19:01+00:00,242.0131,14.6,12.57,47.84626,-54.09684
2021-09-30 11:29:01+00:00,240.6697,14.6,12.57,47.84626,-54.09684
2021-09-30 11:39:01+00:00,242.6031,14.59,12.57,47.84626,-54.09684
2021-09-30 11:49:01+00:00,246.2198,14.58,12.57,47.84626,-54.09684
2021-09-30 11:59:01+00:00,246.9747,14.59,12.57,47.84626,-54.09684
2021-09-30 12:09:01+00:00,245.5265,14.6,12.57,47.84626,-54.09684
2021-09-30 12:19:01+00:00,246.4548,14.6,12.65,47.84626,-54.09684
2021-09-30 12:29:01+00:00,248.2264,14.6,12.65,47.84626,-54.09684
2021-09-30 12:39:01+00:00,248.1797,14.6,12.65,47.84626,-54.09684
2021-09-30 12:49:01+00:00,245.1064,14.6,12.65,47.84626,-54.09684
2021-09-30 12:59:01+00:00,248.1048,14.6,12.65,47.84626,-54.09684
2021-09-30 13:09:01+00:00,254.0614,14.58,12.65,47.84626,-54.09684
2021-09-30 13:19:01+00:00,254.7031,14.57,12.65,47.84626,-54.09684
2021-09-30 13:29:01+00:00,250.6681,14.57,12.65,47.84626,-54.09684
2021-09-30 13:39:01+00:00,253.5397,14.56,12.65,47.84626,-54.09684
2021-09-30 13:49:01+00:00,257.0081,14.56,12.65,47.84626,-54.09684
2021-09-30 13:59:01+00:00,255.8264,14.57,12.65,47.84626,-54.09684
2021-09-30 14:09:01+00:00,252.5048,14.57,12.65,47.84626,-54.09684
2021-09-30 14:19:01+00:00,255.5481,14.56,12.73,47.84626,-54.09684
2021-09-30 14:29:01+00:00,258.6813,14.57,12.73,47.84626,-54.09684
2021-09-30 14:39:01+00:00,258.4147,14.57,12.73,47.84626,-54.09684
2021-09-30 14:49:01+00:00,259.4648,14.58,12.73,47.84626,-54.09684
2021-09-30 14:59:01+00:00,266.2697,14.59,12.73,47.84626,-54.09684
2021-09-30 15:09:01+00:00,270.218,14.58,12.73,47.84626,-54.09684
2021-09-30 15:19:01+00:00,271.3364,14.56,12.65,47.84626,-54.09684
2021-09-30 15:29:01+00:00,278.3881,14.5,12.65,47.84626,-54.09684
2021-09-30 15:39:01+00:00,281.3447,14.5,12.65,47.84626,-54.09684
2021-09-30 15:49:01+00:00,280.6497,14.5,12.65,47.84626,-54.09684
2021-09-30 15:59:01+00:00,286.3848,14.5,12.65,47.84626,-54.09684
2021-09-30 16:09:01+00:00,294.938,14.5,12.65,47.84626,-54.09684
2021-09-30 16:19:01+00:00,292.1714,14.5,12.89,47.84626,-54.09684
2021-09-30 16:29:01+00:00,295.5164,14.5,12.89,47.84626,-54.09684
2021-09-30 16:39:01+00:00,304.0247,14.52,12.89,47.84626,-54.09684
2021-09-30 16:49:01+00:00,304.9647,14.52,12.89,47.84626,-54.09684
2021-09-30 16:59:01+00:00,301.5997,14.53,12.89,47.84626,-54.09684
2021-09-30 17:09:01+00:00,312.5097,14.5,12.89,47.84626,-54.09684
2021-09-30 17:19:01+00:00,317.6646,14.5,13.05,47.84626,-54.09684
2021-09-30 17:29:01+00:00,312.8013,14.5,13.05,47.84626,-54.09684
2021-09-30 17:39:01+00:00,312.633,14.5,13.05,47.84626,-54.09684
2021-09-30 17:49:01+00:00,320.7664,14.5,13.05,47.84626,-54.09684
2021-09-30 17:59:01+00:00,319.0714,14.5,13.05,47.84626,-54.09684
2021-09-30 18:09:01+00:00,314.238,14.5,13.05,47.84626,-54.09684
2021-09-30 18:19:01+00:00,316.8846,14.5,12.97,47.84626,-54.09684
2021-09-30 18:29:01+00:00,321.7448,14.56,12.97,47.84626,-54.09684
2021-09-30 18:39:01+00:00,319.0213,14.59,12.97,47.84626,-54.09684
2021-09-30 18:49:01+00:00,318.0179,14.57,12.97,47.84626,-54.09684
2021-09-30 18:59:01+00:00,320.803,14.6,12.97,47.84626,-54.09684
2021-09-30 19:09:01+00:00,319.5598,14.6,12.97,47.84626,-54.09684
2021-09-30 19:19:01+00:00,315.8929,14.6,13.05,47.84626,-54.09684
2021-09-30 19:29:01+00:00,318.3563,14.5,13.05,47.84626,-54.09684
2021-09-30 19:39:01+00:00,322.1763,14.5,13.05,47.84626,-54.09684
2021-09-30 19:49:01+00:00,316.5514,14.5,13.05,47.84626,-54.09684
2021-09-30 19:59:01+00:00,311.733,14.5,13.05,47.84626,-54.09684
2021-09-30 20:09:01+00:00,312.593,14.5,13.05,47.84626,-54.09684
2021-09-30 20:19:01+00:00,313.5414,14.5,12.97,47.84626,-54.09684
2021-09-30 20:29:01+00:00,308.5463,14.5,12.97,47.84626,-54.09684
2021-09-30 20:39:01+00:00,303.5447,14.5,12.97,47.84626,-54.09684
2021-09-30 20:49:01+00:00,301.733,14.5,12.97,47.84626,-54.09684
2021-09-30 20:59:01+00:00,300.5647,14.5,12.97,47.84626,-54.09684
2021-09-30 21:09:01+00:00,296.923,14.51,12.97,47.84626,-54.09684
2021-09-30 21:19:01+00:00,292.9531,14.53,12.81,47.84626,-54.09684
2021-09-30 21:29:01+00:00,293.2847,14.54,12.81,47.84626,-54.09684
2021-09-30 21:39:01+00:00,291.5164,14.55,12.81,47.84626,-54.09684
2021-09-30 21:49:01+00:00,283.638,14.55,12.81,47.84626,-54.09684
2021-09-30 21:59:01+00:00,281.3698,14.53,12.81,47.84626,-54.09684
2021-09-30 22:09:01+00:00,279.8914,14.55,12.81,47.84626,-54.09684
2021-09-30 22:19:01+00:00,275.0797,14.57,12.73,47.84626,-54.09684
2021-09-30 22:29:01+00:00,268.0497,14.56,12.73,47.84626,-54.09684
2021-09-30 22:39:01+00:00,264.9398,14.57,12.73,47.84626,-54.09684
2021-09-30 22:49:01+00:00,265.0498,14.58,12.73,47.84626,-54.09684
2021-09-30 22:59:01+00:00,262.4014,14.59,12.73,47.84626,-54.09684
2021-09-30 23:09:01+00:00,258.6847,14.59,12.73,47.84626,-54.09684
2021-09-30 23:19:01+00:00,259.2281,14.59,12.65,47.84626,-54.09684
2021-09-30 23:29:01+00:00,261.1381,14.6,12.65,47.84626,-54.09684
2021-09-30 23:39:01+00:00,255.4547,14.6,12.65,47.84626,-54.09684
2021-09-30 23:49:01+00:00,251.4631,14.59,12.65,47.84626,-54.09684
2021-09-30 23:59:01+00:00,251.9381,14.59,12.65,47.84626,-54.09684
